FW8904 Weather Reports


time (UTC)temp
C
wind
direction
speed
KPH
gust
KPH
rain 1hr
cm
rain 24hr
cm
rain mn
cm
humidity
%
barometer
mb
20260507071844 10 263 0.0 0.0 0.03 0.86 0.05 98 1009.0
20260507071343 10 252 0.0 0.0 0.00 0.84 0.03 98 1009.0
20260507065844 10 228 0.0 0.0 0.00 0.84 0.03 98 1008.9
20260507064843 10 207 0.0 0.0 0.00 0.84 0.03 98 1008.3
20260507063843 10 207 0.0 0.0 0.00 0.84 0.03 98 1008.2
20260507062844 10 207 0.0 0.0 0.00 0.84 0.03 98 1008.2
20260507061843 10 207 0.0 0.0 0.00 0.84 0.03 98 1008.5
20260507060843 10 259 0.0 0.0 0.00 0.84 0.03 98 1008.5
20260507055844 10 259 0.0 0.0 0.00 0.84 0.03 98 1008.6
20260507054841 11 259 0.0 0.0 0.00 0.84 0.03 98 1008.6
20260507053844 11 259 0.0 0.0 0.00 0.84 0.03 98 1008.6
20260507052841 11 259 0.0 0.0 0.00 0.84 0.03 98 1008.7
20260507052344 11 259 0.0 0.0 0.03 0.84 0.03 98 1008.9
20260507050838 11 259 0.0 0.0 0.03 0.84 0.03 98 1009.0
20260507045840 11 259 0.0 0.0 0.03 0.84 0.03 98 1009.0
20260507044837 11 259 0.0 0.0 0.03 0.84 0.03 98 1008.8
20260507043834 12 252 0.0 0.0 0.03 0.84 0.03 98 1008.8
20260507042834 12 300 0.0 0.0 0.08 0.84 0.03 98 1008.7
20260507042337 12 245 0.0 0.0 0.13 0.81 0.00 98 1008.9
20260507035835 12 257 0.0 0.0 0.15 0.81 0.81 98 1008.7
20260507034834 12 262 0.0 0.0 0.15 0.81 0.81 98 1008.9
20260507033834 13 251 0.0 0.0 0.18 0.81 0.81 98 1008.9
20260507032835 13 257 0.0 0.0 0.13 0.76 0.76 98 1009.2
20260507031830 13 269 0.0 0.0 0.05 0.69 0.69 97 1008.9
20260507030828 14 232 0.0 0.0 0.05 0.69 0.69 98 1008.8
20260507025829 14 261 0.0 0.0 0.03 0.66 0.66 99 1008.6
20260507024827 14 232 0.0 0.0 0.03 0.66 0.66 99 1008.5
20260507024327 14 262 0.0 0.0 0.00 0.64 0.64 99 1008.5
20260507022826 14 246 0.0 0.0 0.00 0.64 0.64 99 1008.4
20260507021827 14 255 0.0 0.0 0.00 0.64 0.64 99 1008.5
20260507020828 14 195 0.0 3.2 0.00 0.64 0.64 99 1008.2
20260507015824 14 212 0.0 9.7 0.00 0.64 0.64 99 1008.3
20260507014825 14 229 0.0 0.0 0.00 0.64 0.64 99 1008.5
20260507013824 14 211 0.0 0.0 0.00 0.64 0.64 99 1008.4
20260507013328 14 194 0.0 0.0 0.00 0.64 0.64 98 1008.3
20260507012326 14 163 0.0 0.0 0.00 0.64 0.64 98 1008.1
20260507010823 13 155 0.0 0.0 0.00 0.64 0.64 98 1008.2
20260507005824 13 221 0.0 0.0 0.00 0.64 0.64 98 1008.5
20260507004823 13 277 0.0 0.0 0.00 0.64 0.64 98 1008.6
20260507003825 13 228 0.0 0.0 0.00 0.64 0.64 98 1008.6
20260507002824 13 209 0.0 0.0 0.00 0.64 0.64 98 1008.6
20260507002325 13 347 0.0 8.0 0.00 0.64 0.64 98 1008.7
20260507001325 13 142 0.0 0.0 0.00 0.64 0.64 98 1008.5
20260506235824 14 142 0.0 0.0 0.03 0.64 0.64 98 1008.4
20260506234824 14 139 0.0 0.0 0.03 0.64 0.64 98 1008.4
20260506233824 14 210 0.0 8.0 0.03 0.64 0.64 98 1008.2
20260506233325 14 29 0.0 4.8 0.08 0.64 0.64 98 1008.2
20260506231825 14 141 0.0 0.0 0.08 0.64 0.64 98 1008.0
20260506230818 14 212 0.0 0.0 0.08 0.64 0.64 97 1008.1
20260506225817 14 160 0.0 0.0 0.05 0.61 0.61 97 1007.9
20260506224818 14 181 0.0 0.0 0.08 0.61 0.61 97 1007.8
20260506224321 14 352 0.0 4.8 0.08 0.61 0.61 97 1007.9
20260506223318 14 241 0.0 3.2 0.05 0.56 0.56 97 1007.8
20260506221817 14 151 0.0 0.0 0.08 0.56 0.56 97 1007.9
20260506220817 15 286 0.0 0.0 0.10 0.56 0.56 97 1007.9
20260506215818 14 121 0.0 0.0 0.13 0.56 0.56 97 1007.8
20260506214821 15 200 0.0 3.2 0.13 0.53 0.53 97 1007.9
20260506213812 15 149 0.0 0.0 0.13 0.53 0.53 97 1008.0
20260506212812 15 157 0.0 0.0 0.18 0.51 0.51 97 1008.2
20260506212310 15 175 0.0 0.0 0.18 0.48 0.48 97 1008.2
20260506210809 15 37 0.0 3.2 0.20 0.46 0.46 97 1008.3
20260506205810 15 158 0.0 3.2 0.20 0.43 0.43 96 1008.4
20260506204809 15 205 1.6 4.8 0.18 0.41 0.41 96 1008.5
20260506203809 15 149 1.6 4.8 0.18 0.41 0.41 96 1008.6
20260506202813 15 141 0.0 4.8 0.10 0.33 0.33 96 1008.7
20260506201810 15 173 0.0 6.4 0.10 0.30 0.30 96 1008.6
20260506200807 15 169 1.6 9.7 0.05 0.25 0.28 95 1008.7
20260506195808 15 218 0.0 0.0 0.05 0.23 0.23 95 1008.9
20260506194805 15 148 1.6 11.3 0.08 0.23 0.23 95 1009.0
20260506193805 15 141 0.0 1.6 0.10 0.23 0.23 95 1009.2
20260506192805 15 252 0.0 0.0 0.13 0.23 0.23 95 1009.1
20260506191806 15 202 0.0 4.8 0.15 0.20 0.20 95 1009.2
20260506190806 15 174 0.0 0.0 0.18 0.20 0.20 94 1009.6
20260506185805 15 158 0.0 0.0 0.15 0.18 0.18 93 1009.4
20260506185309 15 134 0.0 0.0 0.15 0.15 0.15 93 1009.1
20260506183805 15 120 0.0 0.0 0.13 0.13 0.13 91 1009.5
20260506182806 16 164 0.0 0.0 0.10 0.10 0.10 90 1009.7
20260506181805 16 155 0.0 0.0 0.05 0.05 0.05 89 1009.8
20260506180804 16 207 0.0 0.0 0.03 0.03 0.03 86 1009.9
20260506175803 17 166 0.0 0.0 0.03 0.03 0.03 85 1010.1
20260506174754 17 159 0.0 0.0 0.00 0.00 0.00 81 1010.0
20260506173755 18 158 0.0 0.0 0.00 0.00 0.00 79 1010.2
20260506172754 19 109 0.0 0.0 0.00 0.00 0.00 76 1010.5
20260506171755 20 236 0.0 3.2 0.00 0.00 0.00 74 1010.3
20260506170754 20 188 0.0 4.8 0.00 0.00 0.00 72 1010.1
20260506165755 21 149 0.0 0.0 0.00 0.00 0.00 70 1010.1
20260506164752 21 158 0.0 1.6 0.00 0.00 0.00 71 1010.1
20260506163753 21 146 0.0 9.7 0.00 0.00 0.00 70 1010.2
20260506162754 21 140 0.0 0.0 0.00 0.00 0.00 70 1010.2
20260506161753 20 185 0.0 0.0 0.00 0.00 0.00 71 1010.3
20260506160753 21 233 0.0 0.0 0.00 0.00 0.00 70 1010.6
20260506155753 21 184 0.0 0.0 0.00 0.00 0.00 70 1010.7
20260506154753 21 205 0.0 0.0 0.00 0.00 0.00 70 1010.7
20260506153753 21 226 0.0 6.4 0.00 0.00 0.00 69 1010.7
20260506152752 21 154 0.0 14.5 0.00 0.00 0.00 69 1010.9
20260506151752 21 258 0.0 0.0 0.00 0.00 0.00 71 1010.9
20260506150747 21 269 0.0 6.4 0.00 0.00 0.00 71 1011.0
20260506145748 21 238 0.0 9.7 0.00 0.00 0.00 70 1011.2
20260506144748 21 214 0.0 0.0 0.00 0.00 0.00 72 1011.1
20260506143746 20 262 0.0 9.7 0.00 0.00 0.00 73 1011.3
20260506142746 20 115 1.6 9.7 0.00 0.00 0.00 75 1011.2
20260506142247 20 103 0.0 11.3 0.00 0.00 0.00 75 1011.3
20260506140748 20 196 0.0 0.0 0.00 0.00 0.00 74 1011.4
20260506140248 20 208 0.0 0.0 0.00 0.00 0.00 76 1011.0
20260506134750 20 185 0.0 0.0 0.00 0.00 0.00 76 1011.1
20260506133741 19 229 0.0 1.6 0.00 0.00 0.00 78 1011.1
20260506132741 19 301 1.6 14.5 0.00 0.00 0.00 78 1011.3
20260506131740 19 180 0.0 0.0 0.00 0.00 0.00 79 1011.2
20260506130738 18 242 3.2 9.7 0.00 0.00 0.00 81 1011.6
20260506125738 18 172 1.6 8.0 0.00 0.00 0.00 82 1011.8
20260506124739 17 168 1.6 9.7 0.00 0.00 0.00 85 1011.7
20260506123738 16 174 0.0 0.0 0.00 0.00 0.00 85 1011.8
20260506122739 16 205 0.0 0.0 0.00 0.00 0.00 86 1011.8
20260506121737 16 193 0.0 0.0 0.00 0.00 0.00 87 1011.8
20260506121241 16 104 0.0 6.4 0.00 0.00 0.00 87 1011.9
20260506115738 16 158 0.0 6.4 0.00 0.00 0.00 87 1011.8
20260506112737 15 150 0.0 0.0 0.00 0.00 0.00 91 1012.0
20260506111735 14 162 0.0 6.4 0.00 0.00 0.00 91 1012.1
20260506110737 14 172 0.0 4.8 0.00 0.00 0.00 92 1012.2
20260506105735 14 135 0.0 0.0 0.00 0.00 0.00 93 1012.1
20260506104733 13 145 0.0 0.0 0.00 0.00 0.00 93 1012.1
20260506103732 13 148 0.0 0.0 0.00 0.00 0.00 93 1011.9
20260506102732 13 117 0.0 0.0 0.00 0.00 0.00 93 1011.8
20260506101731 13 141 0.0 0.0 0.00 0.00 0.00 92 1011.9
20260506100726 13 153 0.0 0.0 0.00 0.00 0.00 92 1011.9
20260506095726 13 155 0.0 0.0 0.00 0.00 0.00 92 1011.9
20260506094726 13 141 0.0 0.0 0.00 0.00 0.00 92 1011.9
20260506093727 13 143 0.0 0.0 0.00 0.00 0.00 91 1011.9
20260506092725 13 151 0.0 0.0 0.00 0.00 0.00 91 1011.8
20260506091726 13 153 0.0 0.0 0.00 0.00 0.00 91 1011.8
20260506090724 13 150 0.0 0.0 0.00 0.00 0.00 90 1012.0
20260506085721 14 141 0.0 0.0 0.00 0.00 0.00 90 1011.9
20260506084720 14 148 0.0 0.0 0.00 0.00 0.00 90 1012.0
20260506083719 14 115 0.0 0.0 0.00 0.00 0.00 90 1012.0
20260506082717 14 167 0.0 0.0 0.00 0.00 0.00 89 1012.1
20260506081715 14 150 0.0 0.0 0.00 0.00 0.00 89 1012.1
20260506080716 14 162 0.0 0.0 0.00 0.00 0.00 88 1012.2